Glasgow, MT

3:59 AM MST on December 09, 2016 (GMT -0700)
Wokal-Glasgow International

Weather History for KGGW - March, 2012

Change the Weather History Date:

Monday, March 5, 2012

  Actual Average Record
Temperature  
Mean Temperature 40 °F 26 °F  
Max Temperature 54 °F 36 °F 69 °F (1987)
Min Temperature 25 °F 16 °F -28 °F (1955)
Degree Days  
Heating Degree Days 25 39  
Month to date heating degree days 192 199  
Since 1 July heating degree days 5693 6569  
Cooling Degree Days 0 0  
Month to date cooling degree days 0 0  
Year to date cooling degree days 0 0  
Moisture  
Dew Point 29 °F    
Average Humidity 69    
Maximum Humidity 88    
Minimum Humidity 49    
Precipitation  
Precipitation T in 0.01 in 0.83 in (1935)
Month to date precipitation 0.33 0.05  
Year to date precipitation 1.22 0.68  
Snow  
Snow 0.00 in 0.20 in 8.60 in (1935)
Month to date snowfall 4.2 0.9  
Since 1 July snowfall 25.6 27.9  
Snow Depth 0.00 in    
Sea Level Pressure  
Sea Level Pressure 29.62 in    
Wind  
Wind Speed 6 mph (SE)    
Max Wind Speed 15 mph    
Max Gust Speed 23 mph    
Visibility 10 miles    
Events Rain    
T = Trace of Precipitation, MM = Missing Value Source: NWS Daily Summary

Daily Weather History Graph

Daily Weather History Graph

Search for Another Location

Airport or City:

Trip Planner

Search our weather history database for the weather conditions in past years. The results will help you decide how hot, cold, wet, or windy it might be!

Date:

Astronomy

Mar. 05, 2012 Rise Set
Actual Time 6:38 AM MST 5:57 PM MST
Civil Twilight 6:07 AM MST 6:28 PM MST
Nautical Twilight 5:31 AM MST 7:04 PM MST
Astronomical Twilight 4:55 AM MST 7:41 PM MST
Moon 3:09 PM MST (3/5) 4:51 AM MST (3/5)
Length of Visible Light 12h 21m
Length of Day
11h 19m
Waxing Gibbous, 91% of the Moon is Illuminated
Mar 5
Waxing Gibbous
Mar 8
Full
Mar 14
Last Quarter
Mar 22
New
Mar 30
First Quarter

Hourly Weather History & Observations

Time (MST) Temp. Windchill Dew Point Humidity Pressure Visibility Wind Dir Wind Speed Gust Speed Precip Events Conditions
12:53 AM 26.1 °F 17.6 °F 23.0 °F 88% 29.77 in 10.0 mi ESE 8.1 mph - N/A   Clear
1:53 AM 27.0 °F 20.5 °F 23.0 °F 85% 29.75 in 10.0 mi SE 5.8 mph - N/A   Clear
2:53 AM 25.0 °F 19.3 °F 21.9 °F 88% 29.75 in 10.0 mi ESE 4.6 mph - N/A   Clear
3:53 AM 26.1 °F 21.9 °F 21.9 °F 84% 29.75 in 10.0 mi SE 3.5 mph - N/A   Clear
4:53 AM 32.0 °F 27.5 °F 25.0 °F 75% 29.74 in 10.0 mi South 4.6 mph - N/A   Clear
5:53 AM 34.0 °F 28.0 °F 24.1 °F 67% 29.74 in 10.0 mi WSW 6.9 mph - N/A   Clear
6:53 AM 33.1 °F 27.7 °F 24.1 °F 70% 29.74 in 10.0 mi WSW 5.8 mph - N/A   Overcast
7:53 AM 36.0 °F - 25.0 °F 64% 29.73 in 10.0 mi Calm Calm - N/A   Clear
8:53 AM 42.1 °F - 27.0 °F 55% 29.71 in 10.0 mi Calm Calm - N/A   Clear
9:53 AM 43.0 °F 41.3 °F 28.9 °F 58% 29.70 in 10.0 mi South 3.5 mph - N/A   Clear
10:53 AM 46.9 °F - 28.9 °F 50% 29.68 in 10.0 mi Calm Calm - N/A   Clear
11:53 AM 48.0 °F - 32.0 °F 54% 29.66 in 10.0 mi Calm Calm - N/A   Clear
12:53 PM 48.9 °F - 34.0 °F 56% 29.63 in 10.0 mi SE 5.8 mph - N/A   Clear
1:53 PM 52.0 °F - 33.1 °F 49% 29.60 in 10.0 mi SE 4.6 mph - N/A   Clear
2:53 PM 48.9 °F - 35.1 °F 59% 29.58 in 10.0 mi ESE 6.9 mph - N/A   Clear
3:53 PM 46.0 °F 42.5 °F 34.0 °F 63% 29.55 in 10.0 mi SE 6.9 mph - N/A   Clear
4:53 PM 45.0 °F 40.6 °F 32.0 °F 60% 29.52 in 10.0 mi SSE 8.1 mph - N/A   Clear
5:53 PM 43.0 °F 37.7 °F 30.9 °F 62% 29.49 in 10.0 mi SE 9.2 mph - N/A   Clear
6:53 PM 42.1 °F 36.6 °F 30.9 °F 65% 29.47 in 10.0 mi SE 9.2 mph - N/A   Clear
7:53 PM 42.1 °F 36.6 °F 30.9 °F 65% 29.47 in 10.0 mi North 9.2 mph 23.0 mph N/A   Overcast
8:53 PM 43.0 °F 37.7 °F 30.9 °F 62% 29.44 in 10.0 mi North 9.2 mph - 0.00 in Rain Light Rain
9:53 PM 37.9 °F 31.5 °F 30.9 °F 76% 29.48 in 10.0 mi WNW 9.2 mph - 0.00 in   Overcast
10:53 PM 37.9 °F 30.5 °F 30.9 °F 76% 29.43 in 10.0 mi NE 11.5 mph - N/A   Clear
11:53 PM 36.0 °F 30.3 °F 30.9 °F 82% 29.42 in 10.0 mi SE 6.9 mph - N/A   Mostly Cloudy